Tracking 19903 objects as of 16-Oct-2019
HD Live streaming from Space Station
objects crossing your sky now

COSMOS 1275 DEB

Track COSMOS 1275 DEB now!
10-day predictions


NORAD ID: 42181
Int'l Code: 1981-053SV
Perigee: 892.7 km
Apogee: 992.5 km
Inclination: 82.9 °
Period: 103.7 minutes
Semi major axis: 7313 km
RCS: Unknown
Launch date: June 4, 1981
Source: Commonwealth of Independent States (former USSR) (CIS)
Launch site: PLESETSK MISSILE AND SPACE COMPLEX (PKMTR)

Note: This is SATELLITE DEBRIS
aabbcc
Your satellite tracking list
Your tracking list is empty




NASA's NSSDC Master Catalog

Two Line Element Set (TLE):
1 42181U 81053SV  19284.02561653 +.00000425 +00000-0 +33819-3 0  9993
2 42181 082.9036 137.0657 0068204 254.5098 104.8527 13.88055526739748
Source of the keplerian elements: AFSPC